Weather History for Shingle Point, YT

Change the Weather History Date:

Wednesday, March 20, 2013

  Actual Average Record
Temperature  
Mean Temperature -6 °F -  
Max Temperature 1 °F 0 °F 32 °F (1998)
Min Temperature -13 °F -13 °F -40 °F (2008)
Degree Days  
Heating Degree Days 71    
Moisture  
Dew Point -    
Average Humidity    
Maximum Humidity    
Minimum Humidity    
Precipitation  
Precipitation 0.00 in - - ()
Sea Level Pressure  
Sea Level Pressure 30.02 in    
Wind  
Wind Speed 9 mph ()    
Max Wind Speed 24 mph    
Max Gust Speed 24 mph    
Visibility 6.7 miles    
Events Snow    
Averages and records for this station are not official NWS values.
T = Trace of Precipitation, MM = Missing Value Source: Averaged Metar Reports

Daily Weather History Graph

Daily Weather History Graph

Search for Another Location

Airport:

Trip Planner

Search our weather history database for the weather conditions in past years. The results will help you decide how hot, cold, wet, or windy it might be!

Date:

Astronomy

Mar. 20, 2013 Rise Set
Actual Time 8:06 AM PDT 8:28 PM PDT
Civil Twilight 7:07 AM PDT 9:26 PM PDT
Nautical Twilight 5:54 AM PDT 10:41 PM PDT
Astronomical Twilight 4:18 AM PDT 12:20 AM PDT
Moon 10:55 AM PDT (3/20) 7:08 AM PDT (3/20)
Length of Visible Light 14h 18m
Length of Day
12h 21m
First Quarter, 60% of the Moon is Illuminated
Mar 20
First Quarter
Mar 27
Full
Apr 2
Last Quarter
Apr 10
New
Apr 18
First Quarter

Hourly Weather History & Observations

Time (PDT) Temp. Windchill Dew Point Humidity Pressure Visibility Wind Dir Wind Speed Gust Speed Precip Events Conditions
12:00 AM -5.8 °F -16.7 °F - N/A% 30.12 in 5.0 mi SSW 4.6 mph - N/A Snow Light Snow
12:26 AM -7.6 °F -16.5 °F - N/A% 30.09 in 8.0 mi South 3.5 mph - N/A   Unknown
12:31 AM -7.6 °F -18.8 °F - N/A% 30.09 in 8.0 mi South 4.6 mph - N/A Snow Light Snow
1:00 AM -7.6 °F -18.8 °F - N/A% 30.11 in 4.0 mi South 4.6 mph - N/A Snow Light Snow
1:28 AM -7.6 °F -16.5 °F - N/A% 30.08 in 2.8 mi WSW 3.5 mph - N/A Snow Light Snow
2:00 AM -8 °F - - % 30.11 in 1 mi Calm Calm - - Snow Light Snow
2:00 AM -7.6 °F - - N/A% 30.11 in 1.5 mi Calm Calm - N/A Snow Light Snow
2:33 AM -7.6 °F - - N/A% 30.08 in 3.0 mi Calm Calm - N/A Snow Light Snow
2:34 AM -7.6 °F - - N/A% 30.08 in 3.0 mi Calm Calm - N/A Snow Light Snow
2:47 AM -7.6 °F -16.5 °F - N/A% 30.07 in 3.0 mi SE 3.5 mph - N/A   Unknown
2:49 AM -7.6 °F - - N/A% 30.07 in 3.5 mi SE 2.3 mph - N/A   Unknown
3:00 AM -7.6 °F - - N/A% 30.09 in 3.5 mi ESE 2.3 mph - N/A   Unknown
4:00 AM -7.6 °F -18.8 °F - N/A% 30.08 in 9.0 mi South 4.6 mph - N/A   Unknown
5:00 AM -11 °F - - % 30.06 in 9 mi South 9.2 mph - -  
6:00 AM -11.2 °F -27.8 °F - N/A% 30.05 in 9.0 mi SW 8.1 mph - N/A   Unknown
7:00 AM -13.0 °F -25.1 °F - N/A% 30.04 in 9.0 mi SSW 4.6 mph - N/A   Unknown
8:00 AM -9 °F - - % 30.04 in 7 mi SSW 4.6 mph - -  
8:00 AM -9.4 °F -18.6 °F - N/A% 30.04 in 7.0 mi SSW 3.5 mph - N/A   Unknown
9:00 AM -7.6 °F -24.6 °F - N/A% 30.03 in 9.0 mi South 9.2 mph - N/A   Unknown
10:00 AM -7.6 °F -24.6 °F - N/A% 30.02 in 9.0 mi South 9.2 mph - N/A   Unknown
11:00 AM -4 °F - - % 30.01 in 9 mi South 16.1 mph - -  
11:00 AM -4.0 °F -24.5 °F - N/A% 30.01 in 9.0 mi South 15.0 mph - N/A   Unknown
11:36 AM -2.2 °F -25.2 °F - N/A% 29.97 in 9.0 mi SSW 20.7 mph - N/A   Unknown
11:38 AM -2.2 °F -25.2 °F - N/A% 29.97 in 7.0 mi SSW 20.7 mph - N/A Snow Light Snow
11:42 AM -2.2 °F -26.2 °F - N/A% 29.97 in 2.6 mi SSW 23.0 mph - N/A Snow Light Snow
11:59 AM -2.2 °F -25.2 °F - N/A% 29.97 in 3.0 mi SSW 20.7 mph - N/A Snow Light Snow
12:00 PM -2.2 °F -25.2 °F - N/A% 30.00 in 3.5 mi SSW 20.7 mph - N/A Snow Light Snow
12:08 PM -2.2 °F -25.7 °F - N/A% 29.97 in 3.0 mi SSW 21.9 mph - N/A Snow Light Snow
12:26 PM -2.2 °F -24.1 °F - N/A% 29.97 in 3.0 mi SSW 18.4 mph 24.2 mph N/A   Unknown
12:32 PM -2.2 °F -22.2 °F - N/A% 29.97 in 9.0 mi South 15.0 mph - N/A   Unknown
1:00 PM -2.2 °F -22.2 °F - N/A% 30.00 in 9.0 mi South 15.0 mph - N/A   Unknown
2:00 PM -1 °F - - % 29.99 in 9 mi South 17.3 mph - -  
2:00 PM -0.4 °F -21.7 °F - N/A% 29.99 in 9.0 mi South 18.4 mph - N/A   Unknown
3:00 PM -0.4 °F -21.2 °F - N/A% 29.99 in 9.0 mi South 17.3 mph - N/A   Unknown
4:00 PM -0.4 °F -22.3 °F - N/A% 29.99 in 9.0 mi South 19.6 mph - N/A   Unknown
5:00 PM -0 °F - - % 29.99 in 9 mi SSE 15.0 mph - -  
5:00 PM -0.4 °F -19.9 °F - N/A% 29.99 in 9.0 mi SSE 15.0 mph - N/A   Unknown
5:26 PM -0.4 °F -22.3 °F - N/A% 29.96 in 7.0 mi South 19.6 mph - N/A Snow Light Snow
5:36 PM 1.4 °F -21.9 °F - N/A% 29.95 in 2.8 mi South 24.2 mph - N/A Snow Light Snow
6:00 PM -0.4 °F -22.8 °F - N/A% 29.98 in 4.0 mi South 20.7 mph - N/A Snow Light Snow
6:10 PM -0.4 °F -21.2 °F - N/A% 29.95 in 8.0 mi South 17.3 mph - N/A   Unknown
7:00 PM -0.4 °F -21.2 °F - N/A% 29.98 in 9.0 mi South 17.3 mph - N/A   Unknown
8:00 PM 0 °F - - % 29.98 in 9 mi South 18.4 mph - -  
8:00 PM -0.4 °F -21.7 °F - N/A% 29.98 in 9.0 mi South 18.4 mph - N/A   Unknown
9:00 PM -2.2 °F -22.9 °F - N/A% 29.99 in 9.0 mi South 16.1 mph - N/A   Unknown
10:00 PM -4.0 °F -25.2 °F - N/A% 29.99 in 9.0 mi South 16.1 mph - N/A   Unknown
11:00 PM -4 °F - - % 29.98 in 9 mi South 16.1 mph - -  
11:00 PM -4.0 °F -25.2 °F - N/A% 29.98 in 9.0 mi SSE 16.1 mph - N/A   Unknown